H1 CPF 2 NER 2021 7 30 9 211 01 glonass131 H2 1301901 9131 39155 2021 7 30 0 0 0 2021 8 2 23 45 0 900 1 1 0 0 0 1 H9 10 0 59425 0.00000 0 21215367.299 7748493.321 -11754624.168 10 0 59425 900.00000 0 19604493.266 7513045.431 -14402306.600 10 0 59425 1800.00000 0 17671327.676 7395892.765 -16768646.122 10 0 59425 2700.00000 0 15463593.577 7438043.827 -18807402.397 10 0 59425 3600.00000 0 13038021.744 7671227.551 -20478771.347 10 0 59425 4500.00000 0 10458148.890 8116370.389 -21750173.045 10 0 59425 5400.00000 0 7791841.274 8782547.788 -22596892.195 10 0 59425 6300.00000 0 5108648.752 9666455.455 -23002558.400 10 0 59425 7200.00000 0 2477101.515 10752422.839 -22959457.110 10 0 59425 8100.00000 0 -37936.483 12012967.810 -22468666.015 10 0 59425 9000.00000 0 -2377746.394 13409868.143 -21540015.345 10 0 59425 9900.00000 0 -4491962.307 14895703.286 -20191874.379 10 0 59425 10800.00000 0 -6340416.992 16415799.998 -18450769.939 10 0 59425 11700.00000 0 -7894550.390 17910498.552 -16350845.998 10 0 59425 12600.00000 0 -9138324.559 19317642.901 -13933176.638 10 0 59425 13500.00000 0 -10068610.044 20575189.317 -11244947.272 10 0 59425 14400.00000 0 -10695031.029 21623823.496 -8338521.403 10 0 59425 15300.00000 0 -11039279.331 22409476.341 -5270412.213 10 0 59425 16200.00000 0 -11133929.434 22885633.493 -2100179.788 10 0 59425 17100.00000 0 -11020807.343 23015342.831 1110724.267 10 0 59425 18000.00000 0 -10748984.073 22772837.210 4300142.234 10 0 59425 18900.00000 0 -10372479.774 22144706.090 7406403.163 10 0 59425 19800.00000 0 -9947775.761 21130568.606 10369500.972 10 0 59425 20700.00000 0 -9531239.029 19743221.322 13132236.060 10 0 59425 21600.00000 0 -9176566.822 18008255.435 15641299.977 10 0 59425 22500.00000 0 -8932357.409 15963159.745 17848284.014 10 0 59425 23400.00000 0 -8839907.581 13655946.437 19710594.097 10 0 59425 24300.00000 0 -8931327.871 11143355.786 21192256.289 10 0 59425 25200.00000 0 -9228053.334 8488712.574 22264599.113 10 0 59425 26100.00000 0 -9739811.641 5759520.956 22906800.858 10 0 59425 27000.00000 0 -10464091.779 3024894.838 23106292.284 10 0 59425 27900.00000 0 -11386136.455 352927.402 22859007.209 10 0 59425 28800.00000 0 -12479460.143 -2191893.730 22169475.798 10 0 59425 29700.00000 0 -13706873.436 -4551120.906 21050757.735 10 0 59425 30600.00000 0 -15021973.610 -6674531.166 19524214.902 10 0 59425 31500.00000 0 -16371041.915 -8521971.436 17619125.871 10 0 59425 32400.00000 0 -17695270.916 -10064787.778 15372147.239 10 0 59425 33300.00000 0 -18933230.844 -11286778.663 12826629.674 10 0 59425 34200.00000 0 -20023472.997 -12184631.380 10031799.595 10 0 59425 35100.00000 0 -20907161.476 -12767821.987 7041820.311 10 0 59425 36000.00000 0 -21530622.212 -13057981.530 3914749.346 10 0 59425 36900.00000 0 -21847700.574 -13087753.846 711411.491 10 0 59425 37800.00000 0 -21821825.988 -12899192.223 -2505790.534 10 0 59425 38700.00000 0 -21427693.761 -12541762.378 -5674104.000 10 0 59425 39600.00000 0 -20652490.058 -12070036.604 -8731667.257 10 0 59425 40500.00000 0 -19496605.306 -11541177.882 -11618737.956 10 0 59425 41400.00000 0 -17973803.096 -11012322.309 -14278882.227 10 0 59425 42300.00000 0 -16110835.395 -10537973.075 -16660099.200 10 0 59425 43200.00000 0 -13946519.021 -10167518.952 -18715856.867 10 0 59425 44100.00000 0 -11530311.523 -9942984.823 -20406017.121 10 0 59425 45000.00000 0 -8920446.549 -9897111.683 -21697630.464 10 0 59425 45900.00000 0 -6181707.745 -10051848.975 -22565584.023 10 0 59425 46800.00000 0 -3382935.551 -10417324.019 -22993089.917 10 0 59425 47700.00000 0 -594372.628 -10991332.315 -22972004.717 10 0 59425 48600.00000 0 2115040.031 -11759369.788 -22502974.509 10 0 59425 49500.00000 0 4680302.634 -12695204.588 -21595403.889 10 0 59425 50400.00000 0 7042821.401 -13761962.793 -20267250.947 10 0 59425 51300.00000 0 9152596.381 -14913680.496 -18544653.873 10 0 59425 52200.00000 0 10970042.421 -16097255.100 -16461398.121 10 0 59425 53100.00000 0 12467369.277 -17254711.925 -14058236.248 10 0 59425 54000.00000 0 13629466.085 -18325689.397 -11382075.198 10 0 59425 54900.00000 0 14454256.448 -19250037.319 -8485048.217 10 0 59425 55800.00000 0 14952512.759 -19970418.528 -5423490.615 10 0 59425 56700.00000 0 15147141.025 -20434804.763 -2256840.091 10 0 59425 57600.00000 0 15071969.433 -20598762.503 953516.614 10 0 59425 58500.00000 0 14770094.156 -20427433.912 4145428.198 10 0 59425 59400.00000 0 14291853.895 -19897131.128 7257171.866 10 0 59425 60300.00000 0 13692519.473 -18996478.509 10228632.682 10 0 59425 61200.00000 0 13029795.872 -17727056.339 13002447.488 10 0 59425 62100.00000 0 12361241.293 -16103520.065 15525092.845 10 0 59425 63000.00000 0 11741710.511 -14153190.506 17747897.798 10 0 59425 63900.00000 0 11220928.380 -11915131.994 19627963.762 10 0 59425 64800.00000 0 10841293.573 -9438755.863 21128975.743 10 0 59425 65700.00000 0 10636003.046 -6782005.698 22221890.996 10 0 59425 66600.00000 0 10627574.599 -4009197.494 22885493.196 10 0 59425 67500.00000 0 10826828.745 -1188601.587 23106802.409 10 0 59425 68400.00000 0 11232372.618 1610136.402 22881333.268 10 0 59425 69300.00000 0 11830608.411 4318631.546 22213196.027 10 0 59425 70200.00000 0 12596267.620 6872345.948 21115037.571 10 0 59425 71100.00000 0 13493450.973 9213020.341 19607821.895 10 0 59425 72000.00000 0 14477133.067 11290851.315 17720452.195 10 0 59425 72900.00000 0 15495071.268 13066324.393 15489239.489 10 0 59425 73800.00000 0 16490041.193 14511626.474 12957225.484 10 0 59425 74700.00000 0 17402306.678 15611577.833 10173370.486 10 0 59425 75600.00000 0 18172221.389 16364043.427 7191620.024 10 0 59425 76500.00000 0 18742852.627 16779804.710 4069866.788 10 0 59425 77400.00000 0 19062515.768 16881895.717 868827.326 10 0 59425 78300.00000 0 19087110.654 16704430.217 -2349144.784 10 0 59425 79200.00000 0 18782158.694 16290968.616 -5521285.505 10 0 59425 80100.00000 0 18124451.625 15692493.521 -8585661.332 10 0 59425 81000.00000 0 17103239.092 14965080.264 -11482398.681 10 0 59425 81900.00000 0 15720901.802 14167362.295 -14154875.528 10 0 59425 82800.00000 0 13993079.243 13357900.699 -16550849.647 10 0 59425 83700.00000 0 11948244.662 12592571.489 -18623499.295 10 0 59425 84600.00000 0 9626743.942 11922083.619 -20332354.161 10 0 59425 85500.00000 0 7079338.467 11389734.870 -21644096.868 10 0 59426 0.00000 0 4365313.358 11029502.198 -22533218.500 10 0 59426 900.00000 0 1550230.988 10864548.679 -22982515.093 10 0 59426 1800.00000 0 -1296574.516 10906209.461 -22983415.487 10 0 59426 2700.00000 0 -4104656.358 11153500.947 -22536135.006 10 0 59426 3600.00000 0 -6805155.685 11593170.868 -21649653.096 10 0 59426 4500.00000 0 -9333430.221 12200286.878 -20341516.714 10 0 59426 5400.00000 0 -11631501.587 12939336.212 -18637475.017 10 0 59426 6300.00000 0 -13650220.023 13765788.102 -16570954.099 10 0 59426 7200.00000 0 -15351057.680 14628050.911 -14182383.735 10 0 59426 8100.00000 0 -16707457.967 15469739.708 -11518390.811 10 0 59426 9000.00000 0 -17705687.404 16232157.262 -8630876.442 10 0 59426 9900.00000 0 -18345157.559 16856883.062 -5575995.977 10 0 59426 10800.00000 0 -18638206.978 17288361.009 -2413062.482 10 0 59426 11700.00000 0 -18609355.529 17476377.064 796604.535 10 0 59426 12600.00000 0 -18294065.249 17378323.411 3990862.682 10 0 59426 13500.00000 0 -17737062.094 16961155.022 7107939.902 10 0 59426 14400.00000 0 -16990290.536 16202957.807 10087615.083 10 0 59426 15300.00000 0 -16110587.679 15094063.816 12872364.236 10 0 59426 16200.00000 0 -15157174.424 13637667.876 15408451.684 10 0 59426 17100.00000 0 -14189068.114 11849920.404 17646946.946 10 0 59426 18000.00000 0 -13262523.791 9759492.583 19544649.563 10 0 59426 18900.00000 0 -12428609.536 7406631.294 21064905.961 10 0 59426 19800.00000 0 -11731015.564 4841741.607 22178304.385 10 0 59426 20700.00000 0 -11204187.156 2123553.731 22863235.868 10 0 59426 21600.00000 0 -10871858.274 -683052.268 23106311.417 10 0 59426 22500.00000 0 -10746046.583 -3509476.775 22902627.711 10 0 59426 23400.00000 0 -10826552.077 -6285988.244 22255875.890 10 0 59426 24300.00000 0 -11100981.143 -8944363.837 21178290.373 10 0 59426 25200.00000 0 -11545296.670 -11420476.068 19690437.088 10 0 59426 26100.00000 0 -12124873.255 -13656719.856 17820843.176 10 0 59426 27000.00000 0 -12796015.584 -15604180.183 15605472.896 10 0 59426 27900.00000 0 -13507878.591 -17224450.383 13087057.351 10 0 59426 28800.00000 0 -14204710.609 -18491024.560 10314288.663 10 0 59426 29700.00000 0 -14828326.459 -19390204.772 7340892.149 10 0 59426 30600.00000 0 -15320706.720 -19921483.387 4224592.931 10 0 59426 31500.00000 0 -15626613.093 -20097382.731 1025996.311 10 0 59426 32400.00000 0 -15696107.987 -19942757.201 -2192596.474 10 0 59426 33300.00000 0 -15486869.574 -19493585.987 -5368413.414 10 0 59426 34200.00000 0 -14966201.755 -18795306.893 -8439452.593 10 0 59426 35100.00000 0 -14112650.723 -17900761.602 -11345712.722 10 0 59426 36000.00000 0 -12917156.514 -16867840.086 -14030387.121 10 0 59426 36900.00000 0 -11383688.061 -15756925.425 -16440995.573 10 0 59426 37800.00000 0 -9529332.498 -14628249.008 -18530429.742 10 0 59426 38700.00000 0 -7383833.169 -13539270.133 -20257889.896 10 0 59426 39600.00000 0 -4988594.829 -12542192.904 -21589693.081 10 0 59426 40500.00000 0 -2395197.587 -11681727.077 -22499936.082 10 0 59426 41400.00000 0 336517.710 -10993188.665 -22970999.919 10 0 59426 42300.00000 0 3140711.508 -10501020.958 -22993886.147 10 0 59426 43200.00000 0 5948059.330 -10217798.092 -22568379.186 10 0 59426 44100.00000 0 8688411.265 -10143752.135 -21703032.596 10 0 59426 45000.00000 0 11293485.239 -10266841.947 -20414980.965 10 0 59426 45900.00000 0 13699481.440 -10563358.735 -18729582.736 10 0 59426 46800.00000 0 15849509.111 -10999040.290 -16679902.557 10 0 59426 47700.00000 0 17695725.410 -11530644.426 -14306044.979 10 0 59426 48600.00000 0 19201098.798 -12107912.954 -11654354.030 10 0 59426 49500.00000 0 20340725.650 -12675841.349 -8776495.616 10 0 59426 50400.00000 0 21102647.830 -13177156.982 -5728441.796 10 0 59426 51300.00000 0 21488140.166 -13554900.552 -2569377.525 10 0 59426 52200.00000 0 21511458.956 -13755001.654 639448.471 10 0 59426 53100.00000 0 21199064.946 -13728740.358 3835906.166 10 0 59426 54000.00000 0 20588355.895 -13434991.958 6958177.525 10 0 59426 54900.00000 0 19725963.743 -12842161.605 9945938.238 10 0 59426 55800.00000 0 18665688.871 -11929728.805 12741506.098 10 0 59426 56700.00000 0 17466158.358 -10689338.070 15290935.363 10 0 59426 57600.00000 0 16188305.819 -9125390.791 17545037.762 10 0 59426 58500.00000 0 14892777.195 -7255113.839 19460312.241 10 0 59426 59400.00000 0 13637369.357 -5108101.571 20999767.504 10 0 59426 60300.00000 0 12474606.662 -2725349.067 22133623.249 10 0 59426 61200.00000 0 11449554.823 -157814.995 22839877.963 10 0 59426 62100.00000 0 10597961.700 2535428.778 23104733.349 10 0 59426 63000.00000 0 9944801.464 5289387.065 22922867.586 10 0 59426 63900.00000 0 9503282.376 8035582.963 22297551.866 10 0 59426 64800.00000 0 9274359.847 10704653.142 21240607.046 10 0 59426 65700.00000 0 9246775.992 13228991.930 19772199.688 10 0 59426 66600.00000 0 9397625.586 15545336.573 17920479.375 10 0 59426 67500.00000 0 9693426.600 17597187.699 15721061.936 10 0 59426 68400.00000 0 10091652.466 19336964.822 13216366.048 10 0 59426 69300.00000 0 10542663.607 20727806.637 10454813.687 10 0 59426 70200.00000 0 10991958.435 21744939.909 7489907.852 10 0 59426 71100.00000 0 11382649.697 22376557.995 4379203.870 10 0 59426 72000.00000 0 11658061.650 22624170.205 1183193.472 10 0 59426 72900.00000 0 11764337.320 22502405.387 -2035876.823 10 0 59426 73800.00000 0 11652943.782 22038276.384 -5215229.453 10 0 59426 74700.00000 0 11282966.913 21269935.195 -8292796.450 10 0 59426 75600.00000 0 10623095.449 20244970.884 -11208451.023 10 0 59426 76500.00000 0 9653207.191 19018322.490 -13905203.926 10 0 59426 77400.00000 0 8365487.072 17649895.967 -16330338.863 10 0 59426 78300.00000 0 6765027.085 16201987.524 -18436462.635 10 0 59426 79200.00000 0 4869880.642 14736624.164 -20182447.632 10 0 59426 80100.00000 0 2710567.527 13312935.646 -21534246.697 10 0 59426 81000.00000 0 329049.555 11984670.596 -22465563.517 10 0 59426 81900.00000 0 -2222780.112 10797962.895 -22958365.101 10 0 59426 82800.00000 0 -4885029.998 9789443.207 -23003226.470 10 0 59426 83700.00000 0 -7592083.876 8984775.137 -22599501.564 10 0 59426 84600.00000 0 -10275118.736 8397676.757 -21755318.101 10 0 59426 85500.00000 0 -12864760.872 8029467.119 -20487397.930 10 0 59427 0.00000 0 -15293768.601 7869154.533 -18820708.006 10 0 59427 900.00000 0 -17499629.395 7894060.361 -16787950.217 10 0 59427 1800.00000 0 -19426963.750 8070948.820 -14428902.341 10 0 59427 2700.00000 0 -21029635.723 8357612.983 -11789623.688 10 0 59427 3600.00000 0 -22272484.999 8704846.925 -8921542.890 10 0 59427 4500.00000 0 -23132609.300 9058719.245 -5880446.540 10 0 59427 5400.00000 0 -23600146.797 9363050.394 -2725389.226 10 0 59427 6300.00000 0 -23678528.504 9561988.595 482453.395 10 0 59427 7200.00000 0 -23384192.955 9602575.595 3680966.018 10 0 59427 8100.00000 0 -22745777.665 9437194.571 6808287.012 10 0 59427 9000.00000 0 -21802823.342 9025797.985 9803991.301 10 0 59427 9900.00000 0 -20604046.451 8337822.826 12610240.912 10 0 59427 10800.00000 0 -19205253.116 7353713.937 15172882.495 10 0 59427 11700.00000 0 -17666981.432 6065992.429 17442472.372 10 0 59427 12600.00000 0 -16051969.833 4479824.997 19375211.165 10 0 59427 13500.00000 0 -14422555.788 2613070.174 20933771.939 10 0 59427 14400.00000 0 -12838111.398 495798.735 22088007.670 10 0 59427 15300.00000 0 -11352620.844 -1830693.325 22815525.822 10 0 59427 16200.00000 0 -10012498.642 -4315340.506 23102119.979 10 0 59427 17100.00000 0 -8854737.967 -6899174.608 22942050.647 10 0 59427 18000.00000 0 -7905465.144 -9517528.221 22338169.521 10 0 59427 18900.00000 0 -7178960.114 -12102486.707 21301883.976 10 0 59427 19800.00000 0 -6677183.988 -14585489.957 19852960.893 10 0 59427 20700.00000 0 -6389834.396 -16899978.277 18019171.601 10 0 59427 21600.00000 0 -6294927.719 -18983974.284 15835782.434 10 0 59427 22500.00000 0 -6359885.544 -20782494.265 13344898.218 10 0 59427 23400.00000 0 -6543081.528 -22249688.407 10594669.029 10 0 59427 24300.00000 0 -6795785.120 -23350619.715 7638373.505 10 0 59427 25200.00000 0 -7064421.267 -24062605.607 4533394.885 10 0 59427 26100.00000 0 -7293051.037 -24376063.883 1340108.823 10 0 59427 27000.00000 0 -7425967.782 -24294825.304 -1879295.582 10 0 59427 27900.00000 0 -7410297.594 -23835897.650 -5062038.060 10 0 59427 28800.00000 0 -7198491.824 -23028689.432 -8145987.597 10 0 59427 29700.00000 0 -6750603.317 -21913724.977 -11070895.051 10 0 59427 30600.00000 0 -6036246.817 -20540904.695 -13779591.804 10 0 59427 31500.00000 0 -5036157.384 -18967384.403 -16219128.643 10 0 59427 32400.00000 0 -3743277.991 -17255164.434 -18341830.543 10 0 59427 33300.00000 0 -2163327.797 -15468491.723 -20106244.814 10 0 59427 34200.00000 0 -314825.290 -13671186.357 -21477962.516 10 0 59427 35100.00000 0 1771435.802 -11924006.999 -22430296.196 10 0 59427 36000.00000 0 4053436.284 -10282167.607 -22944800.278 10 0 59427 36900.00000 0 6479462.564 -8793110.910 -23011624.112 10 0 59427 37800.00000 0 8990054.110 -7494632.482 -22629691.451 10 0 59427 38700.00000 0 11520284.778 -6413433.648 -21806703.945 10 0 59427 39600.00000 0 14002281.378 -5564162.643 -20558969.965 10 0 59427 40500.00000 0 16367873.343 -4948982.157 -18911063.689 10 0 59427 41400.00000 0 18551262.200 -4557678.694 -16895322.756 10 0 59427 42300.00000 0 20491599.204 -4368306.121 -14551195.994 10 0 59427 43200.00000 0 22135364.031 -4348333.103 -11924455.476 10 0 59427 44100.00000 0 23438446.295 -4456243.089 -9066289.643 10 0 59427 45000.00000 0 24367844.594 -4643516.785 -6032296.358 10 0 59427 45900.00000 0 24902914.301 -4856911.453 -2881396.328 10 0 59427 46800.00000 0 25036114.404 -5040939.487 325311.517 10 0 59427 47700.00000 0 24773224.765 -5140441.089 3525730.237 10 0 59427 48600.00000 0 24133027.206 -5103142.559 6657958.121 10 0 59427 49500.00000 0 23146465.863 -4882092.956 9661472.581 10 0 59427 50400.00000 0 21855323.521 -4437877.550 12478282.781 10 0 59427 51300.00000 0 20310470.135 -3740516.126 15054030.243 10 0 59427 52200.00000 0 18569756.813 -2770967.472 17339017.925 10 0 59427 53100.00000 0 16695642.530 -1522177.793 19289149.710 10 0 59427 54000.00000 0 14752651.228 370.595 20866764.180 10 0 59427 54900.00000 0 12804763.378 1778633.682 22041348.336 10 0 59427 55800.00000 0 10912848.534 3782505.482 22790118.981 10 0 59427 56700.00000 0 9132243.458 5970824.183 23098461.569 10 0 59427 57600.00000 0 7510574.579 8292845.486 22960218.555 10 0 59427 58500.00000 0 6085913.800 10690124.819 22377821.411 10 0 59427 59400.00000 0 4885343.398 13098733.500 21362262.956 10 0 59427 60300.00000 0 3923989.439 15451719.952 19932909.009 10 0 59427 61200.00000 0 3204564.425 17681716.360 18117150.981 10 0 59427 62100.00000 0 2717439.218 19723584.513 15949903.801 10 0 59427 63000.00000 0 2441242.578 21516991.980 13472956.324 10 0 59427 63900.00000 0 2343964.822 23008811.468 10734184.438 10 0 59427 64800.00000 0 2384520.682 24155242.591 7786639.990 10 0 59427 65700.00000 0 2514706.761 24923565.898 4687531.584 10 0 59427 66600.00000 0 2681471.597 25293453.455 1497116.178 10 0 59427 67500.00000 0 2829402.287 25257778.721 -1722477.204 10 0 59427 68400.00000 0 2903321.478 24822889.182 -4908468.227 10 0 59427 69300.00000 0 2850883.040 24008328.041 -7998665.375 10 0 59427 70200.00000 0 2625054.010 22846015.152 -10932699.548 10 0 59427 71100.00000 0 2186374.721 21378920.609 -13653224.938 10 0 59427 72000.00000 0 1504898.305 19659286.822 -16107061.383 10 0 59427 72900.00000 0 561724.438 17746474.606 -18246253.758 10 0 59427 73800.00000 0 -649940.239 15704525.244 -20029025.780 10 0 59427 74700.00000 0 -2124241.885 13599542.807 -21420607.998 10 0 59427 75600.00000 0 -3842683.757 11497008.529 -22393922.850 10 0 59427 76500.00000 0 -5774675.574 9459141.753 -22930112.962 10 0 59427 77400.00000 0 -7878604.862 7542419.524 -23018902.491 10 0 59427 78300.00000 0 -10103384.782 5795359.434 -22658785.150 10 0 59427 79200.00000 0 -12390412.576 4256658.507 -21857036.256 10 0 59427 80100.00000 0 -14675855.404 2953765.109 -20629550.002 10 0 59427 81000.00000 0 -16893166.737 1901941.882 -19000506.693 10 0 59427 81900.00000 0 -18975727.152 1103856.381 -17001878.088 10 0 59427 82800.00000 0 -20859498.494 549713.562 -14672782.201 10 0 59427 83700.00000 0 -22485580.425 217921.145 -12058701.704 10 0 59427 84600.00000 0 -23802563.064 76256.478 -9210582.504 10 0 59427 85500.00000 0 -24768578.418 83482.730 -6183831.291 10 0 59428 0.00000 0 -25352966.560 191343.661 -3037232.468 10 0 59428 900.00000 0 -25537488.620 346850.757 168194.398 10 0 59428 1800.00000 0 -25317038.965 494765.544 3370373.181 10 0 59428 2700.00000 0 -24699827.560 580171.026 6507364.591 10 0 59428 3600.00000 0 -23707028.611 551025.024 9518551.012 10 0 59428 4500.00000 0 -22371910.623 360587.921 12345791.188 10 0 59428 5400.00000 0 -20738485.797 -30375.957 14934523.869 10 0 59428 6300.00000 0 -18859735.299 -651714.781 17234800.856 10 0 59428 7200.00000 0 -16795484.007 -1522401.433 19202231.303 10 0 59428 8100.00000 0 -14610012.144 -2649503.222 20798821.036 10 0 59428 9000.00000 0 -12369501.363 -4027652.169 21993692.491 10 0 59428 9900.00000 0 -10139419.436 -5639038.606 22763672.851 10 0 59428 10800.00000 0 -7981949.771 -7453929.832 23093740.118 10 0 59428 11700.00000 0 -5953570.250 -9431694.383 22977318.996 10 0 59428 12600.00000 0 -4102880.030 -11522291.960 22416420.694 10 0 59428 13500.00000 0 -2468763.052 -13668170.149 21421623.108 10 0 59428 14400.00000 0 -1078963.801 -15806492.201 20011890.316 10 0 59428 15300.00000 0 50865.525 -17871606.073 18214232.839 10 0 59428 16200.00000 0 917606.199 -19797654.340 16063212.947 10 0 59428 17100.00000 0 1530583.081 -21521217.930 13600301.993 10 0 59428 18000.00000 0 1910946.020 -22983883.984 10873099.883 10 0 59428 18900.00000 0 2090547.059 -24134630.373 7934429.655 10 0 59428 19800.00000 0 2110359.422 -24931925.856 4841323.051 10 0 59428 20700.00000 0 2018504.035 -25345455.893 1653915.932 10 0 59428 21600.00000 0 1867966.708 -25357399.189 -1565725.290 10 0 59428 22500.00000 0 1714103.077 -24963198.556 -4754822.841 10 0 59428 23400.00000 0 1612038.231 -24171791.250 -7851127.428 10 0 59428 24300.00000 0 1614073.238 -23005286.706 -10794152.790 10 0 59428 25200.00000 0 1767211.090 -21498103.555 -13526378.755 10 0 59428 26100.00000 0 2110909.812 -19695601.650 -15994396.998 10 0 59428 27000.00000 0 2675160.890 -17652266.626 -18149974.965 10 0 59428 27900.00000 0 3478977.083 -15429524.082 -19951015.239 10 0 59428 28800.00000 0 4529355.854 -13093276.628 -21362390.009 10 0 59428 29700.00000 0 5820763.885 -10711268.785 -22356633.341 10 0 59428 30600.00000 0 7335165.443 -8350391.938 -22914477.348 10 0 59428 31500.00000 0 9042593.611 -6074043.786 -23025221.790 10 0 59428 32400.00000 0 10902240.036 -3939653.736 -22686930.623 10 0 59428 33300.00000 0 12864016.531 -1996477.991 -21906452.653 10 0 59428 34200.00000 0 14870521.781 -283756.065 -20699267.258 10 0 59428 35100.00000 0 16859329.372 1170695.687 -19089159.799 10 0 59428 36000.00000 0 18765500.095 2351396.896 -17107734.666 10 0 59428 36900.00000 0 20524212.268 3255587.025 -14793777.167 10 0 59428 37800.00000 0 22073399.500 3893067.513 -12192478.272 10 0 59428 38700.00000 0 23356285.465 4285512.409 -9354538.672 10 0 59428 39600.00000 0 24323710.126 4465279.877 -6335170.875 10 0 59428 40500.00000 0 24936151.194 4473777.686 -3193019.574 10 0 59428 41400.00000 0 25165357.786 4359454.067 10978.183 10 0 59428 42300.00000 0 24995529.782 4175500.361 3214770.657 10 0 59428 43200.00000 0 24423995.546 3977363.340 6356384.344 10 0 59428 44100.00000 0 23461361.605 3820172.301 9375109.757 10 0 59428 45000.00000 0 22131129.590 3756188.855 12212658.080 10 0 59428 45900.00000 0 20468797.593 3832385.870 14814267.811 10 0 59428 46800.00000 0 18520483.838 4088256.149 17129741.736 10 0 59428 47700.00000 0 16341129.821 4553941.622 19114396.029 10 0 59428 48600.00000 0 13992356.706 5248760.497 20729905.132 10 0 59428 49500.00000 0 11540062.436 6180193.537 21945027.913 10 0 59428 50400.00000 0 9051857.305 7343371.896 22736202.571 10 0 59428 51300.00000 0 6594441.949 8721088.784 23087999.906 10 0 59428 52200.00000 0 4231034.016 10284336.087 22993426.752 10 0 59428 53100.00000 0 2018948.012 11993345.819 22454073.517 10 0 59428 54000.00000 0 7426.810 13799095.820 21480102.246 10 0 59428 54900.00000 0 -1764186.475 15645220.016 20090073.945 10 0 59428 55800.00000 0 -3267860.798 17470246.605 18310616.553 10 0 59428 56700.00000 0 -4487814.864 19210073.492 16175937.660 10 0 59428 57600.00000 0 -5420940.376 20800579.689 13727188.846 10 0 59428 58500.00000 0 -6076691.969 22180264.698 11011691.571 10 0 59428 59400.00000 0 -6476447.103 23292805.640 8082037.445 10 0 59428 60300.00000 0 -6652361.432 24089424.216 4995078.656 10 0 59428 61200.00000 0 -6645766.774 24530962.432 1810827.222 10 0 59428 62100.00000 0 -6505178.694 24589577.527 -1408715.797 10 0 59428 63000.00000 0 -6283998.038 24249982.012 -4600777.924 10 0 59428 63900.00000 0 -6038004.545 23510173.750 -7703054.722 10 0 59428 64800.00000 0 -5822750.284 22381622.611 -10654945.221 10 0 59428 65700.00000 0 -5690965.627 20888903.720 -13398757.162 10 0 59428 66600.00000 0 -5690090.290 19068791.112 -15880856.109 10 0 59428 67500.00000 0 -5860036.960 16968849.329 -18052733.860 10 0 59428 68400.00000 0 -6231284.843 14645582.456 -19871973.383 10 0 59428 69300.00000 0 -6823386.211 12162218.997 -21303089.750 10 0 59428 70200.00000 0 -7643950.882 9586226.906 -22318229.654 10 0 59428 71100.00000 0 -8688152.668 6986664.397 -22897715.390 10 0 59428 72000.00000 0 -9938779.040 4431479.004 -23030422.717 10 0 59428 72900.00000 0 -11366821.649 1984868.983 -22713985.878 10 0 59428 73800.00000 0 -12932582.054 -295182.126 -21954826.810 10 0 59428 74700.00000 0 -14587244.887 -2359094.844 -20768009.296 10 0 59428 75600.00000 0 -16274850.936 -4167516.593 -19176922.544 10 0 59428 76500.00000 0 -17934585.836 -5692703.712 -17212801.957 10 0 59428 77400.00000 0 -19503287.022 -6919407.356 -14914098.165 10 0 59428 78300.00000 0 -20918062.845 -7845229.417 -12325708.180 10 0 59428 79200.00000 0 -22118913.585 -8480437.049 -9498085.032 10 0 59428 80100.00000 0 -23051244.462 -8847247.133 -6486244.465 10 0 59428 81000.00000 0 -23668165.983 -8978614.164 -3348688.887 10 0 59428 81900.00000 0 -23932486.294 -8916575.489 -146270.025 10 0 59428 82800.00000 0 -23818313.544 -8710225.838 3058987.386 10 0 59428 83700.00000 0 -23312202.875 -8413408.014 6205078.291 10 0 59428 84600.00000 0 -22413801.753 -8082217.738 9231203.962 10 0 59428 85500.00000 0 -21135968.155 -7772427.671 12078930.585 99